[[{"header":{"parameterUnit":"m.s-1","parameterCategory":1,"la1":30.2991,"la2":30.254,"lo1":-89.0895,"lo2":-89.0444,"dy":0.0017,"dx":0.0017,"nx":28,"ny":28,"refTime":"2023-06-21T21:00:00:Z","depth":0,"parameterNumber":2,"parameterNumberName":"U-component_of_WINDS"},"data":[0,0,0,0,0,0,0,0,0,0,0,0,0,0,0,0,0,0,0,0,0,0,0,0,0,0,0,0,0,0,0,0,0,0,0,0,0,0,0,0,0,0,0,0,0,0,0,0,0,0,0,0,0,0,0,0,0,0,2.1764,2.1764,0,2.1768,2.1768,2.1768,2.168,2.1677,2.1675,2.1673,2.1678,2.168,2.1682,0,0,0,0,0,0,0,0,0,0,0,0,0,2.1683,2.1685,2.1764,2.1764,2.1764,2.1768,2.1768,2.1768,2.168,2.1677,2.1674,2.1672,2.1677,2.168,2.1682,0,0,0,0,0,0,0,0,0,0,0,0,0,2.1706,2.1686,2.1764,2.1721,2.1717,2.1768,2.1768,2.1768,2.1681,2.1677,2.1674,2.167,2.1676,2.1679,2.1683,2.1775,0,0,2.1693,2.1695,0,0,0,0,0,0,0,0,2.1705,2.1709,2.1727,2.1724,2.172,2.172,2.1741,2.177,2.1682,2.1695,2.1673,2.1669,2.1695,2.1696,2.1705,2.1775,2.1776,2.1694,2.1696,2.1697,2.1698,0,0,0,0,0,0,0,2.1703,2.1708,2.1765,2.1728,2.1723,2.1702,2.1701,2.1746,2.1714,2.1693,2.1687,2.1688,2.1692,2.1702,2.1704,2.1776,2.1694,2.1697,2.1699,2.17,2.1925,2.1928,0,0,0,0,0,0,2.1708,2.1708,2.1765,2.1766,2.1703,2.1706,2.1706,2.1723,2.1714,2.1709,2.1691,2.1684,2.1697,2.17,2.1704,2.1813,2.1697,2.1701,2.1703,2.1921,2.1926,2.193,0,0,0,0,0,0,2.1706,2.1713,2.1765,2.1735,2.174,2.1711,2.1732,2.1725,2.1735,2.1712,2.1706,2.1707,2.1695,2.1699,2.1759,2.1812,2.1702,2.1705,2.1916,2.1922,2.1928,2.2031,0,0,0,0,0,0,2.1704,2.1713,2.1748,2.1736,2.1742,2.1819,2.1735,2.1728,2.1741,2.1732,2.1725,2.1721,2.1692,2.1754,2.1762,2.1815,2.1708,2.1911,2.1919,2.1926,2.2023,2.204,2.2054,0,0,0,0,0,2.1702,2.1776,2.175,2.1757,2.1784,2.1823,2.1826,2.1791,2.1746,2.178,2.1766,2.1721,2.1805,2.1761,2.1769,2.1824,2.1908,2.1917,2.1925,2.2016,2.2037,2.2054,0,0,0,0,0,0,2.1795,2.1774,2.1744,2.1818,2.1823,2.1808,2.185,2.1813,2.1831,2.1822,2.1778,2.1778,2.1845,2.184,2.1791,2.1914,2.1848,2.1859,2.1914,2.1934,2.1949,2.1949,2.1711,0,0,0,0,0,2.1824,2.1856,2.1837,2.1903,2.1907,2.1879,2.1894,2.1867,2.187,2.1872,2.1862,2.1868,2.1895,2.1914,2.1938,2.2022,2.202,2.2064,2.2079,2.2092,2.2103,2.2149,2.2168,2.1958,2.1958,2.1958,0,0,2.1884,2.1877,2.19,2.1922,2.1922,2.1958,2.1881,2.1921,2.1948,2.1878,2.1934,2.1927,2.1931,2.2003,2.2035,2.2001,2.216,2.2104,2.2114,2.2117,2.216,2.218,2.2197,2.1964,2.1963,2.1962,0,0,2.2012,2.201,2.2066,2.2068,2.207,2.2051,2.2065,2.2056,2.2049,2.2104,2.2053,2.2084,2.2132,2.2137,2.2146,2.2279,2.2239,2.2288,2.237,2.2416,2.2432,2.2447,2.2496,2.2514,2.2298,2.2298,2.2298,0,2.2087,2.2138,2.2099,2.2144,2.2156,2.2095,2.2152,2.2156,2.2166,2.2177,2.2139,2.2199,2.2197,2.2271,2.2304,2.2312,2.2328,2.2289,2.2433,2.2447,2.246,2.2506,2.2525,2.2304,2.2304,2.2303,2.2302,0,2.2231,2.2267,2.2313,2.2324,2.2341,2.2392,2.2362,2.2384,2.2356,2.2341,2.2399,2.2395,2.2418,2.2433,2.2406,2.2504,2.2484,2.244,2.2374,2.2487,2.253,2.2547,2.2313,2.2311,2.2309,2.2307,0,0,2.2417,2.2408,2.2425,2.2431,2.2429,2.2457,2.2506,2.2528,2.2549,2.2558,2.2599,2.2642,2.2603,2.2613,2.2586,2.2626,2.2733,2.2577,2.2577,2.2608,2.2844,2.2877,2.2898,2.2707,2.271,2.2712,2.2844,0,2.2543,2.2625,2.2592,2.2678,2.2712,2.2656,2.2698,2.2703,2.2691,2.2719,2.2705,2.2737,2.2682,2.2688,2.2725,2.2713,2.278,2.2702,2.2746,2.2748,2.2747,2.292,2.2955,2.3079,2.286,2.2863,2.2865,0,2.27,2.2717,2.2806,2.28,2.2814,2.2852,2.2872,2.2898,2.2903,2.2892,2.2905,2.2869,2.2918,2.2852,2.2919,2.2867,2.2883,2.288,2.2884,2.2887,2.2814,2.2929,2.3117,2.3137,2.289,2.2888,2.2887,0,2.2829,2.2873,2.2933,2.2939,2.2934,2.2963,2.2962,2.2963,2.298,2.2997,2.3007,2.303,2.3042,2.3061,2.3034,2.2987,2.3106,2.3037,2.3099,2.31,2.3127,2.3125,2.3321,2.3136,2.3135,2.3135,2.3135,0,2.2973,2.303,2.2991,2.3028,2.3091,2.3053,2.3117,2.311,2.3112,2.3147,2.3099,2.3134,2.3095,2.3126,2.3105,2.3165,2.3171,2.3164,2.3158,2.3169,2.317,2.3179,2.317,2.314,2.3139,2.3138,2.3137,0,2.3128,2.3103,2.3165,2.3155,2.3154,2.3201,2.3194,2.3228,2.3213,2.3258,2.3267,2.3244,2.3278,2.3253,2.3286,2.3272,2.3352,2.3333,2.3351,2.3346,2.341,2.3405,2.3619,2.3646,2.3443,2.3445,2.3446,0,2.3222,2.3264,2.326,2.328,2.3283,2.3316,2.3332,2.3298,2.3317,2.3327,2.3361,2.3391,2.3413,2.3471,2.3458,2.3484,2.3466,2.354,2.347,2.3481,2.3469,2.3468,2.3472,2.3554,2.3557,2.3559,2.356,0,2.3392,2.3378,2.3404,2.3426,2.3448,2.3464,2.3476,2.3495,2.346,2.3485,2.352,2.3537,2.3572,2.3604,2.3626,2.3625,2.3588,2.3582,2.3598,2.361,2.3619,2.3617,2.339,2.3578,2.3576,2.3575,2.3574,2.3573,2.3519,2.3556,2.3559,2.359,2.3595,2.3608,2.3641,2.363,2.3659,2.3684,2.3662,2.3705,2.371,2.3735,2.3741,2.3774,2.3744,2.3766,2.3772,2.3779,2.3789,2.3614,2.3777,2.3777,2.3776,2.3776,2.3776,0,2.3688,2.3688,2.3717,2.3736,2.3761,2.3723,2.3735,2.3759,2.3796,2.3804,2.3828,2.3869,2.3899,2.3889,2.3917,2.3946,2.393,2.3954,2.3952,2.3953,2.3813,2.3797,2.3967,2.3967,2.3967,2.3967,2.3967,2.3967,2.3779,2.3839,2.3826,2.3889,2.3888,2.3929,2.3939,2.3952,2.3958,2.4006,2.4032,2.4025,2.4026,2.4054,2.4081,2.4077,2.409,2.4122,2.4113,2.3982,2.3963,2.3945,2.393,2.4125,2.4125,2.425,2.4251,2.4252]},{"header":{"parameterUnit":"m.s-1","parameterCategory":1,"la1":30.2991,"la2":30.254,"lo1":-89.0895,"lo2":-89.0444,"dy":0.0017,"dx":0.0017,"nx":28,"ny":28,"refTime":"2023-06-21T21:00:00:Z","depth":0,"parameterNumber":3,"parameterNumberName":"V-component_of_WINDS"},"data":[0,0,0,0,0,0,0,0,0,0,0,0,0,0,0,0,0,0,0,0,0,0,0,0,0,0,0,0,0,0,0,0,0,0,0,0,0,0,0,0,0,0,0,0,0,0,0,0,0,0,0,0,0,0,0,0,0,0,-1.5359,-1.5359,0,-1.5377,-1.5377,-1.5377,-1.5373,-1.5373,-1.5372,-1.5372,-1.5387,-1.5388,-1.5389,0,0,0,0,0,0,0,0,0,0,0,0,0,-1.5321,-1.5321,-1.5359,-1.5359,-1.536,-1.5377,-1.5377,-1.5377,-1.5373,-1.5373,-1.5372,-1.5372,-1.5387,-1.5388,-1.5389,0,0,0,0,0,0,0,0,0,0,0,0,0,-1.5338,-1.5322,-1.5359,-1.536,-1.536,-1.5376,-1.5377,-1.5377,-1.5373,-1.5373,-1.5372,-1.5372,-1.5387,-1.5388,-1.5389,-1.5405,0,0,-1.5392,-1.5393,0,0,0,0,0,0,0,0,-1.5337,-1.5339,-1.5359,-1.536,-1.536,-1.5372,-1.5369,-1.5386,-1.5373,-1.5368,-1.5372,-1.5371,-1.5383,-1.5384,-1.5388,-1.5406,-1.5407,-1.5392,-1.5393,-1.5394,-1.5394,0,0,0,0,0,0,0,-1.5335,-1.5338,-1.5366,-1.536,-1.536,-1.5358,-1.536,-1.5372,-1.5378,-1.5368,-1.5368,-1.537,-1.5383,-1.5387,-1.5389,-1.5407,-1.5392,-1.5393,-1.5394,-1.5394,-1.5439,-1.544,0,0,0,0,0,0,-1.5334,-1.5337,-1.5365,-1.5366,-1.5347,-1.536,-1.5362,-1.5369,-1.5378,-1.5379,-1.5371,-1.537,-1.5386,-1.5387,-1.5389,-1.5409,-1.5394,-1.5395,-1.5395,-1.5439,-1.5439,-1.544,0,0,0,0,0,0,-1.5333,-1.5337,-1.5365,-1.5352,-1.5355,-1.5361,-1.5369,-1.5369,-1.5374,-1.5379,-1.538,-1.5375,-1.5385,-1.5388,-1.5402,-1.5409,-1.5395,-1.5396,-1.5438,-1.5439,-1.544,-1.5448,0,0,0,0,0,0,-1.5332,-1.5337,-1.5343,-1.5352,-1.5356,-1.5377,-1.5369,-1.537,-1.5376,-1.5375,-1.5383,-1.5384,-1.5385,-1.54,-1.5403,-1.541,-1.5397,-1.5437,-1.5438,-1.5439,-1.5447,-1.5449,-1.5451,0,0,0,0,0,-1.5331,-1.5344,-1.5343,-1.5347,-1.5364,-1.5378,-1.538,-1.5382,-1.5377,-1.5383,-1.5387,-1.5384,-1.5408,-1.5401,-1.5404,-1.5413,-1.5437,-1.5438,-1.5439,-1.5446,-1.5449,-1.5451,0,0,0,0,0,0,-1.5335,-1.5345,-1.5345,-1.5361,-1.5369,-1.5377,-1.5385,-1.5384,-1.5392,-1.5391,-1.5393,-1.5394,-1.5409,-1.5412,-1.5404,-1.5429,-1.5422,-1.5424,-1.5426,-1.5428,-1.543,-1.5428,-1.5398,0,0,0,0,0,-1.5338,-1.5349,-1.5357,-1.5371,-1.5375,-1.5379,-1.5385,-1.5386,-1.5394,-1.5396,-1.5401,-1.5408,-1.5417,-1.5423,-1.5432,-1.5448,-1.5449,-1.5455,-1.5457,-1.5458,-1.546,-1.5468,-1.5471,-1.5444,-1.5444,-1.5444,0,0,-1.5344,-1.5351,-1.5357,-1.5372,-1.5378,-1.5388,-1.5382,-1.5393,-1.5401,-1.5398,-1.5411,-1.5415,-1.5423,-1.5438,-1.5445,-1.5441,-1.5468,-1.546,-1.5461,-1.5462,-1.547,-1.5472,-1.5475,-1.5445,-1.5445,-1.5445,0,0,-1.5359,-1.5366,-1.5379,-1.5385,-1.5395,-1.5398,-1.5401,-1.541,-1.5412,-1.5426,-1.5425,-1.5433,-1.5449,-1.5455,-1.546,-1.5479,-1.5476,-1.5482,-1.5491,-1.55,-1.5502,-1.5503,-1.551,-1.5512,-1.5483,-1.5484,-1.5484,0,-1.5365,-1.5382,-1.5385,-1.5397,-1.5403,-1.5402,-1.5414,-1.542,-1.5432,-1.5436,-1.5432,-1.5452,-1.5457,-1.5474,-1.5479,-1.5483,-1.5486,-1.548,-1.5501,-1.5503,-1.5505,-1.5511,-1.5513,-1.5484,-1.5484,-1.5484,-1.5484,0,-1.5388,-1.5399,-1.5408,-1.5421,-1.5428,-1.544,-1.5444,-1.5451,-1.5452,-1.5455,-1.547,-1.5476,-1.5486,-1.549,-1.5491,-1.5507,-1.5504,-1.5501,-1.5494,-1.5508,-1.5514,-1.5516,-1.5485,-1.5485,-1.5484,-1.5484,0,0,-1.5405,-1.542,-1.5423,-1.5429,-1.544,-1.5449,-1.5461,-1.5472,-1.5478,-1.5486,-1.5495,-1.551,-1.5507,-1.5512,-1.5513,-1.5521,-1.5535,-1.5517,-1.5517,-1.5519,-1.5553,-1.5555,-1.5558,-1.5534,-1.5535,-1.5535,-1.5553,0,-1.5422,-1.5443,-1.5447,-1.5466,-1.5477,-1.5477,-1.5487,-1.5495,-1.5498,-1.5507,-1.5511,-1.5521,-1.5517,-1.552,-1.5528,-1.5532,-1.5542,-1.5531,-1.5542,-1.5543,-1.554,-1.5561,-1.5563,-1.5579,-1.5555,-1.5555,-1.5556,0,-1.5443,-1.5453,-1.5474,-1.5484,-1.5488,-1.5498,-1.5508,-1.5517,-1.5526,-1.5528,-1.5535,-1.5535,-1.5547,-1.554,-1.5556,-1.5549,-1.5554,-1.5557,-1.5557,-1.5557,-1.5549,-1.5561,-1.5584,-1.5586,-1.5559,-1.5559,-1.5559,0,-1.5453,-1.5472,-1.5487,-1.5492,-1.5504,-1.5511,-1.5516,-1.5524,-1.5531,-1.554,-1.5544,-1.5554,-1.5559,-1.5567,-1.557,-1.5565,-1.5586,-1.5579,-1.5587,-1.5587,-1.5591,-1.559,-1.5614,-1.5595,-1.5595,-1.5595,-1.5595,0,-1.5471,-1.5483,-1.5491,-1.55,-1.5514,-1.5518,-1.5531,-1.5536,-1.5544,-1.5553,-1.5554,-1.5563,-1.5566,-1.5575,-1.5578,-1.559,-1.5593,-1.5595,-1.5595,-1.5594,-1.5594,-1.5597,-1.5595,-1.5596,-1.5596,-1.5596,-1.5596,0,-1.5484,-1.549,-1.5506,-1.5517,-1.552,-1.553,-1.5539,-1.5547,-1.5551,-1.5563,-1.5566,-1.5573,-1.5584,-1.5588,-1.56,-1.5602,-1.5617,-1.5616,-1.5614,-1.5614,-1.5622,-1.562,-1.5647,-1.5651,-1.5631,-1.5631,-1.5631,0,-1.5494,-1.5503,-1.5516,-1.5523,-1.5529,-1.554,-1.5547,-1.5552,-1.5559,-1.557,-1.5577,-1.5588,-1.5597,-1.5614,-1.5619,-1.5629,-1.5629,-1.5638,-1.563,-1.5629,-1.5628,-1.5627,-1.5628,-1.5639,-1.5639,-1.5639,-1.5639,0,-1.5511,-1.5514,-1.5525,-1.5537,-1.5546,-1.5555,-1.5564,-1.5569,-1.5576,-1.5584,-1.5595,-1.5602,-1.5616,-1.5627,-1.5637,-1.5642,-1.5641,-1.5642,-1.5644,-1.5643,-1.5641,-1.5641,-1.5617,-1.5641,-1.5641,-1.564,-1.564,-1.564,-1.5523,-1.5531,-1.5542,-1.5554,-1.5562,-1.557,-1.5579,-1.5585,-1.5595,-1.5607,-1.5609,-1.5622,-1.563,-1.5645,-1.565,-1.5659,-1.5657,-1.566,-1.5661,-1.5661,-1.5662,-1.564,-1.5661,-1.5661,-1.5661,-1.5661,-1.5661,0,-1.554,-1.5547,-1.5558,-1.5571,-1.5581,-1.5581,-1.5591,-1.5599,-1.561,-1.5619,-1.5628,-1.5641,-1.5652,-1.5659,-1.5669,-1.5675,-1.5675,-1.5678,-1.5677,-1.5678,-1.5663,-1.566,-1.5678,-1.5678,-1.5678,-1.5678,-1.5678,-1.5678,-1.5549,-1.5564,-1.5569,-1.5587,-1.5594,-1.5607,-1.5613,-1.5621,-1.5628,-1.5643,-1.5652,-1.5657,-1.5665,-1.5676,-1.5686,-1.5688,-1.5691,-1.5694,-1.5695,-1.5681,-1.5679,-1.5677,-1.5674,-1.5695,-1.5695,-1.5709,-1.5709,-1.5709]}]]